Location: Hilton Head Island
(32.2163°N, 80.7526°W)
Time: 21:22:51
(UTC-05:00)

SR - Visible Passes

Search period start: 06 February 2026 00:00
Search period end: 16 February 2026 00:00
Orbit: 575 x 847 km, 66.7° (Epoch: 6 February)

Date Brightness Start Highest point End Pass type
(mag) Time Alt. Az. Time Alt. Az. Time Alt. Az.
7 Feb ? 06:03:44 10° SSE 06:06:43 19° ESE 06:09:44 10° ENE visible
9 Feb ? 05:54:32 10° S 05:58:20 33° ESE 06:02:08 10° NE visible
10 Feb ? 05:02:24 10° SE 05:03:44 11° ESE 05:05:04 10° E visible
10 Feb ? 06:40:53 10° SW 06:44:52 43° WNW 06:48:56 10° NNE visible
11 Feb ? 05:45:50 10° SSW 05:49:57 61° ESE 05:54:10 10° NNE visible
12 Feb ? 04:52:11 10° SSE 04:55:16 20° ESE 04:58:24 10° ENE visible
12 Feb ? 06:33:11 10° WSW 06:36:42 25° WNW 06:40:17 10° N visible
13 Feb ? 05:39:20 26° SW 05:41:38 73° WNW 05:45:55 10° NNE visible
14 Feb ? 04:47:22 34° E 04:47:22 34° E 04:50:44 10° NE visible
14 Feb ? 06:26:30 12° W 06:28:36 16° NW 06:31:14 10° NNW visible
15 Feb ? 05:34:04 38° NW 05:34:04 38° NW 05:37:28 10° N visible
